Location: Czu?�w
(50.1404°N, 18.9919°E)
Time: 12:00:50
(UTC+00:00)

Cosmos 44 - Pass Details

Date: 27 October 2020
Orbit: 578 x 784 km, 65.1° (Epoch: 25 November)

Event Time Altitude Azimuth Distance (km) Brightness Sun altitude
Rises 16:08:49 0° 197° (SSW) 2,856 6.9 -7.0°
Reaches altitude 10° 16:11:05 10° 191° (S) 1,983 6.0 -7.4°
Maximum altitude 16:15:19 42° 120° (ESE) 917 3.6 -8.0°
Drops below altitude 10° 16:19:50 10° 50° (NE) 2,116 5.3 -8.7°
Enters shadow 16:20:35 - 47° (NE) 2,405 5.6 -8.9°
